JBU1817 TTPP-TTCP

Flight info

Callsign JBU1817
Flight time N/A
Altitude 11000
Route SASIM DCT NOTEL
Aircraft A320/M-SDE3FGHIRWY/LB1

Departure

Time N/A
Airport Piarco International Airport (TTPP)

Arrival

Time 2026-04-23 21:28
Airport A.N.R. Robinson International Airport (TTCP)
Time Latitude Longitude Altitude Speed Heading
2026-04-23 21:20 10.89129 -61.14154 7031 ft 283 kts 25°
2026-04-23 21:20 10.90921 -61.13305 7034 ft 283 kts 26°
2026-04-23 21:20 10.92707 -61.12456 7031 ft 283 kts 26°
2026-04-23 21:20 10.94495 -61.11606 7034 ft 283 kts 26°
2026-04-23 21:21 10.96272 -61.10764 7029 ft 278 kts 26°
2026-04-23 21:21 10.97865 -61.10012 7032 ft 265 kts 25°
2026-04-23 21:21 10.99499 -61.09240 7031 ft 251 kts 25°
2026-04-23 21:21 11.01034 -61.08512 7025 ft 244 kts 26°
2026-04-23 21:22 11.02588 -61.07771 6755 ft 246 kts 26°
2026-04-23 21:22 11.04134 -61.07034 6497 ft 244 kts 26°
2026-04-23 21:22 11.05668 -61.06304 6236 ft 242 kts 26°
2026-04-23 21:22 11.07174 -61.05589 5917 ft 235 kts 26°
2026-04-23 21:23 11.08632 -61.04895 5608 ft 227 kts 26°
2026-04-23 21:23 11.10043 -61.04187 5067 ft 230 kts 32°
2026-04-23 21:23 11.11340 -61.03301 4808 ft 218 kts 40°
2026-04-23 21:23 11.12466 -61.02287 4704 ft 218 kts 46°
2026-04-23 21:24 11.13458 -61.01117 4266 ft 213 kts 54°
2026-04-23 21:24 11.14260 -60.99877 3766 ft 207 kts 61°
2026-04-23 21:24 11.14892 -60.98562 3212 ft 206 kts 69°
2026-04-23 21:24 11.15344 -60.97190 2664 ft 203 kts 76°
2026-04-23 21:25 11.15620 -60.95809 2126 ft 201 kts 82°
2026-04-23 21:25 11.15726 -60.94420 1737 ft 192 kts 89°
2026-04-23 21:25 11.15681 -60.93109 1575 ft 175 kts 94°
2026-04-23 21:25 11.15598 -60.91948 1433 ft 157 kts 94°
2026-04-23 21:26 11.15520 -60.90871 1286 ft 149 kts 95°
2026-04-23 21:26 11.15445 -60.89832 1095 ft 145 kts 94°
2026-04-23 21:26 11.15370 -60.88802 913 ft 146 kts 93°
2026-04-23 21:26 11.15296 -60.87777 734 ft 145 kts 93°
2026-04-23 21:27 11.15222 -60.86755 553 ft 144 kts 92°
2026-04-23 21:27 11.15148 -60.85737 374 ft 145 kts 94°
2026-04-23 21:27 11.15083 -60.84708 138 ft 141 kts 93°
2026-04-23 21:27 11.15018 -60.83795 43 ft 113 kts 97°
2026-04-23 21:28 11.14964 -60.83138 48 ft 58 kts 93°
2026-04-23 21:28 11.14950 -60.82958 46 ft 32 kts 97°
2026-04-23 21:28 11.14939 -60.82768 44 ft 5 kts 16°
2026-04-23 21:28 11.14940 -60.82785 43 ft 5 kts 253°
2026-04-23 21:29 11.14941 -60.82990 42 ft 47 kts 275°
2026-04-23 21:29 11.14968 -60.83210 47 ft 48 kts 277°
2026-04-23 21:29 11.15004 -60.83492 43 ft 29 kts 274°
2026-04-23 21:29 11.15018 -60.83704 45 ft 31 kts 274°
2026-04-23 21:30 11.15038 -60.83934 38 ft 33 kts 296°
2026-04-23 21:30 11.15113 -60.83973 43 ft 0 kts
2026-04-23 21:30 11.15115 -60.83976 43 ft 0 kts 326°
2026-04-23 21:30 11.15115 -60.83982 43 ft 2 kts 287°
2026-04-23 21:31 11.15121 -60.84003 43 ft 4 kts 287°
2026-04-23 21:31 11.15142 -60.84006 43 ft 4 kts 354°
2026-04-23 21:31 11.15153 -60.84008 43 ft 0 kts 354°
2026-04-23 21:31 11.15171 -60.84008 42 ft 8 kts
2026-04-23 21:32 11.15197 -60.84007 42 ft 0 kts